GFSSE_850_thetae_162.txt.gz
Theta_e
337 332 333 333 333 333 329 327 317 315 320 326 329 327 322 324 326 324 324 324 325 326 327 325 324 329 331 331 332 330 328 327 326 324 323 324 316 311 309 309 313 323 322
338 333 332 332 333 333 330 327 322 314 318 320 322 321 328 326 324 324 323 321 318 316 320 318 321 324 326 328 328 327 326 322 319 320 319 320 312 309 309 308 311 324 323
337 333 332 332 332 332 330 326 325 315 316 318 318 324 329 327 326 322 319 317 316 316 325 317 317 322 325 323 325 324 322 319 316 317 317 315 316 309 306 307 312 319 323
337 334 332 331 330 331 330 326 326 320 317 323 321 318 319 324 324 323 319 316 326 327 325 318 316 318 320 326 326 325 318 314 315 316 318 317 315 313 307 308 308 314 318
336 333 331 331 329 329 329 325 326 322 316 323 328 324 319 325 325 325 323 321 324 321 314 315 315 318 321 328 326 324 319 314 314 316 315 314 315 316 313 306 306 308 312
336 335 333 330 329 327 327 324 325 323 318 314 326 328 326 327 327 324 323 321 321 317 311 311 313 315 324 326 326 324 322 314 313 313 313 314 313 313 311 307 305 307 309
333 335 333 329 329 327 327 325 324 324 321 316 318 327 327 325 323 323 324 323 320 317 311 310 311 313 318 319 319 316 314 314 313 313 314 314 313 312 312 310 307 307 309
332 331 332 330 328 329 327 326 325 324 324 320 316 318 322 321 319 322 324 323 321 318 314 311 310 310 311 311 311 311 311 311 311 311 311 313 314 313 312 312 310 307 306
331 330 326 328 328 329 329 328 327 325 325 324 320 316 317 316 318 320 321 323 321 317 315 315 313 312 310 310 310 310 310 310 310 310 310 311 312 312 312 312 311 311 309
328 327 326 328 326 326 328 329 328 328 327 326 325 322 318 317 317 318 318 320 320 318 316 315 315 315 314 312 311 310 310 310 310 310 310 310 311 313 313 314 313 312 311
331 329 329 327 325 328 329 326 327 328 329 328 327 326 324 321 319 317 317 320 318 318 318 316 315 314 314 313 314 314 314 313 314 314 311 311 313 313 314 314 313 313 311
330 327 329 328 327 327 326 326 326 328 327 327 328 329 327 326 323 321 320 322 322 322 322 321 319 316 316 316 318 317 315 315 316 315 315 314 314 313 315 320 319 316 314
327 330 330 330 330 330 329 328 328 330 330 330 328 326 326 328 326 325 323 323 324 324 322 321 321 320 321 320 321 322 322 320 318 316 316 316 316 316 315 319 321 321 320
325 325 328 329 330 332 331 330 330 331 326 332 332 334 334 332 327 328 329 328 327 326 325 323 323 322 322 321 320 320 321 322 322 321 319 319 319 318 318 317 321 322 322
320 320 321 321 323 327 332 331 330 331 331 331 329 335 333 331 329 329 328 327 328 328 328 328 327 326 326 325 325 324 323 322 322 323 323 322 323 323 323 323 322 322 323
319 320 321 321 320 323 331 332 330 330 332 332 330 327 332 329 330 330 329 328 327 327 326 326 327 326 326 326 325 326 325 326 325 324 324 324 325 325 325 325 325 325 324
320 320 321 321 320 322 329 333 332 331 333 333 331 333 331 327 330 329 329 328 328 327 327 326 327 326 326 325 325 325 324 325 324 325 325 325 325 326 325 324 324 324 324
320 320 320 320 320 320 325 329 329 329 330 330 332 331 330 330 330 329 329 328 329 328 327 327 326 326 325 325 325 325 324 324 323 323 323 323 323 323 322 323 322 323 323
320 319 319 319 319 319 319 319 320 322 328 329 331 331 330 330 328 328 328 328 327 327 327 327 326 327 326 325 325 324 324 323 322 322 322 321 322 322 322 321 322 322 322
319 319 319 318 317 317 316 317 317 317 320 324 328 329 327 328 327 328 327 327 327 326 326 325 325 325 324 324 324 323 322 321 321 321 321 321 321 321 320 321 321 320 320
318 317 315 315 314 314 313 313 314 317 318 321 325 327 326 327 325 326 326 326 326 327 325 324 324 324 323 323 323 322 322 320 320 319 320 321 320 319 321 320 319 320 320
315 314 313 312 312 312 313 313 316 321 325 325 325 324 325 325 326 326 325 325 326 325 325 324 323 322 321 321 321 320 318 317 317 320 318 317 317 318 318 318 318 318 318
313 312 312 312 312 313 315 317 325 324 324 323 322 322 324 325 325 323 322 322 322 321 321 320 320 320 319 319 318 316 317 316 315 315 315 316 317 315 317 314 315 316 317
311 311 311 312 312 314 316 319 322 321 321 321 321 321 321 321 320 319 320 319 316 315 315 313 312 311 311 312 311 312 314 314 314 313 311 309 304 302 301 300 303 307 309
310 311 311 311 310 312 316 318 322 321 318 318 319 318 318 318 316 308 308 308 307 307 307 306 304 303 303 303 303 303 304 307 311 311 310 300 298 298 297 298 299 299 301
310 310 309 309 309 309 310 315 318 318 316 316 316 316 316 308 306 302 300 299 299 299 299 299 298 298 299 299 299 299 299 299 299 298 298 296 296 297 297 297 297 297 300

GFSSE_850_thetae_165.txt.gz
Theta_e
335 332 332 333 333 332 327 323 314 317 328 329 326 324 324 324 324 325 326 326 326 323 323 323 327 330 331 331 328 326 326 326 321 320 319 322 313 311 310 310 319 322 319
337 331 332 332 332 332 327 325 316 314 318 321 320 320 325 322 322 321 319 318 316 316 319 318 320 326 327 328 328 327 325 320 314 316 318 315 311 308 308 309 322 324 323
337 331 331 331 331 331 327 325 320 313 316 317 317 330 328 325 323 319 316 316 315 314 316 313 314 321 324 323 324 322 317 313 312 314 314 313 312 308 306 307 318 322 322
336 333 331 330 330 330 326 325 322 315 319 318 316 324 325 324 322 320 315 316 322 324 319 314 315 319 318 325 324 322 315 313 313 314 313 313 312 311 307 306 308 310 313
334 332 331 330 328 328 327 324 324 319 315 323 325 318 317 322 323 323 321 321 326 320 313 313 314 316 319 327 324 322 319 313 312 312 312 312 313 314 313 308 306 309 310
334 332 333 330 329 328 326 324 324 321 317 316 326 326 324 328 328 325 323 322 321 319 313 312 313 323 326 325 324 323 319 315 312 311 312 313 313 313 312 311 307 307 309
332 333 333 330 329 328 327 324 323 323 319 315 320 326 325 324 321 323 323 322 321 318 312 311 313 316 321 321 320 317 314 314 313 312 311 312 312 312 312 311 310 307 307
329 328 331 330 328 328 327 326 324 324 323 319 316 322 325 323 321 320 323 322 320 318 317 311 311 311 311 312 312 312 312 311 311 311 311 311 312 313 313 313 313 311 309
332 329 326 327 328 328 328 327 327 325 325 324 320 317 317 318 316 318 321 322 321 320 316 315 314 313 312 310 310 310 310 310 310 310 310 310 311 313 314 315 313 313 312
332 331 328 327 325 326 327 328 328 327 326 326 325 322 319 317 316 317 318 318 322 321 319 317 316 315 315 314 313 313 312 312 311 311 311 310 311 313 314 321 320 316 314
331 331 329 328 327 327 328 327 327 327 327 328 327 326 325 322 320 318 318 318 321 320 321 322 321 318 317 316 316 316 315 315 315 317 316 313 312 314 315 319 322 321 321
329 329 328 330 328 328 328 327 326 325 326 327 328 328 328 327 326 323 320 319 322 322 323 322 323 322 320 318 319 320 321 319 317 317 317 317 317 316 316 315 320 320 321
326 329 329 329 329 329 330 329 328 329 326 327 328 326 327 327 328 326 324 323 323 325 324 323 321 321 321 321 320 320 320 321 322 321 321 320 319 319 319 318 318 320 321
324 325 327 328 329 327 330 330 330 329 330 328 325 326 332 332 331 328 326 328 327 327 327 326 325 325 324 324 323 323 323 322 322 322 323 323 322 322 322 322 322 322 322
321 320 320 321 321 322 327 332 331 331 331 331 331 330 329 329 329 330 328 326 327 326 325 325 327 327 326 325 325 325 325 325 325 325 324 323 324 324 324 325 325 324 324
319 319 320 321 321 320 322 329 332 332 331 332 332 329 330 329 329 329 328 327 327 326 326 325 325 325 325 325 325 324 324 324 324 323 324 324 324 324 324 325 324 324 324
319 319 319 320 320 320 320 323 331 333 333 333 333 334 332 331 330 328 327 328 328 328 327 326 326 325 326 325 325 324 324 324 324 323 323 323 322 322 322 322 322 322 322
318 319 319 319 319 319 319 322 328 331 331 331 332 331 331 329 329 328 328 328 327 327 327 326 326 326 326 325 326 326 325 324 323 323 322 322 321 321 322 322 322 321 322
317 319 320 320 319 319 319 319 322 324 325 326 328 330 329 328 328 328 327 326 327 326 326 326 326 326 325 325 325 324 323 323 322 321 321 321 321 321 321 321 320 321 321
317 318 319 319 319 318 318 317 317 318 318 318 321 326 328 329 326 326 326 325 325 325 325 324 324 324 324 324 323 323 322 321 321 320 320 319 320 321 320 320 321 320 319
317 318 318 318 317 315 314 313 313 315 316 317 319 322 326 327 324 325 325 323 324 325 324 324 323 323 322 322 322 321 320 320 319 316 316 320 319 318 318 318 318 317 318
316 315 315 314 313 312 313 313 313 318 319 321 323 325 325 323 323 323 324 324 323 323 323 322 322 321 321 320 320 319 319 315 312 316 318 314 315 316 317 316 317 315 316
314 314 313 311 311 312 313 315 317 322 323 325 321 320 321 321 323 323 322 321 320 320 320 320 319 319 319 318 318 318 316 316 312 311 312 312 312 307 305 310 313 305 310
313 311 310 311 311 312 315 317 319 320 322 321 319 319 319 320 320 319 318 319 319 316 312 313 312 310 310 310 312 312 313 313 313 308 307 308 303 297 297 297 298 300 303
310 310 310 311 311 311 313 316 318 319 319 319 318 317 318 317 317 317 311 308 307 307 306 305 303 302 301 301 302 303 306 310 312 310 305 301 297 296 297 298 298 297 297
309 309 310 310 310 310 310 311 316 318 318 317 315 315 315 316 314 307 303 301 300 299 299 299 299 298 298 299 299 299 299 299 300 301 299 296 296 295 297 296 298 295 295

GFSSE_850_thetae_168.txt.gz
Theta_e
331 331 332 332 332 329 325 317 315 325 328 326 328 326 325 324 326 327 328 327 326 320 321 324 329 329 330 330 328 326 326 322 315 316 317 315 310 309 308 317 323 321 320
334 331 331 332 332 330 325 321 314 319 324 324 322 318 320 320 320 319 318 317 315 314 316 316 319 326 326 327 326 325 319 313 312 314 315 312 311 308 308 315 323 323 322
336 331 330 331 331 330 324 323 315 315 317 318 322 328 325 323 320 316 315 315 320 319 317 314 315 321 323 321 321 320 313 311 312 312 313 312 311 308 306 308 317 321 320
335 331 330 329 329 329 324 323 319 315 319 317 329 328 324 321 320 317 315 322 326 323 316 314 315 319 319 324 323 320 315 312 312 312 312 312 312 313 312 307 309 312 313
335 332 330 328 327 327 324 323 321 316 317 323 321 317 317 322 321 320 319 322 321 318 313 313 313 316 318 326 323 321 319 314 312 311 312 312 313 313 312 310 307 306 308
332 330 330 329 327 326 325 322 323 320 316 318 325 324 324 329 325 323 322 322 320 317 311 311 312 324 324 324 322 319 316 313 313 311 311 312 313 312 312 311 310 307 308
332 332 331 329 329 327 326 324 323 323 319 315 320 324 324 324 326 325 322 320 320 316 313 310 312 315 319 318 318 316 313 312 311 311 310 311 313 313 313 312 312 311 309
331 331 332 331 328 328 327 327 325 324 323 320 316 320 326 324 323 323 322 322 321 318 316 314 314 311 310 311 311 310 310 310 310 309 310 310 311 312 313 316 312 313 312
332 331 328 328 328 328 328 328 327 326 325 324 321 318 319 320 318 317 320 323 322 321 318 317 316 315 315 314 311 311 311 310 311 310 310 310 310 311 313 322 323 316 315
332 331 329 328 326 327 327 328 328 327 326 326 325 324 321 318 318 317 318 319 321 325 321 319 318 318 316 315 315 315 314 315 315 314 316 315 312 311 313 314 321 323 321
328 328 328 328 327 327 327 327 326 326 326 326 326 327 326 324 322 320 319 318 318 322 323 324 324 324 321 318 317 318 319 319 317 316 317 317 317 316 316 315 318 320 322
327 327 327 327 327 327 328 328 327 325 325 325 326 327 327 327 326 326 324 320 320 321 322 323 323 323 321 321 321 320 320 321 321 321 320 319 319 318 318 318 320 321 321
324 325 324 325 327 326 327 330 328 329 328 327 324 325 326 326 326 327 326 325 323 323 325 326 325 323 323 323 322 322 322 321 322 322 322 322 322 322 321 321 322 323 323
322 322 325 325 327 327 327 329 330 329 329 329 330 330 326 330 331 329 328 327 326 327 325 325 325 326 326 326 325 325 325 324 324 324 324 324 324 323 323 324 324 324 324
321 321 321 321 321 322 323 328 330 330 330 331 332 332 331 329 327 327 327 327 326 326 325 325 324 324 324 324 325 324 324 324 323 323 323 323 324 323 323 323 324 324 324
320 319 318 319 319 320 320 320 324 331 332 332 334 334 332 331 329 327 327 327 327 326 326 326 325 325 325 324 324 324 324 324 324 323 323 323 322 322 322 322 322 323 323
319 318 318 319 319 319 319 319 321 329 332 332 332 331 331 330 329 328 327 327 326 326 326 326 326 325 325 325 325 324 325 325 324 323 322 322 321 321 321 321 321 321 322
318 318 318 319 319 319 319 318 319 323 329 331 332 331 329 328 328 327 327 326 326 326 325 325 326 325 325 325 325 324 324 324 323 322 322 321 321 320 321 321 321 320 320
318 317 318 319 319 319 319 319 319 321 324 326 327 327 328 327 328 326 327 326 325 325 325 325 324 324 323 324 324 323 323 322 322 321 321 320 319 320 321 320 319 319 320
317 317 317 318 319 319 318 318 317 317 318 318 319 320 322 326 328 328 326 325 324 323 323 323 323 323 323 322 322 322 321 321 321 320 319 317 317 320 319 319 319 319 318
316 316 317 317 318 317 316 314 313 313 314 316 317 318 320 323 325 325 323 322 324 322 323 323 322 323 322 321 321 320 320 319 319 317 317 317 319 317 316 317 318 317 316
316 316 316 316 315 313 312 312 313 312 315 316 319 321 324 325 322 322 321 322 322 321 320 320 320 320 320 320 319 318 318 315 311 314 316 316 314 314 315 314 313 315 313
315 314 314 313 311 311 312 313 315 315 321 322 323 322 319 320 320 320 320 320 320 319 319 318 319 319 318 317 317 317 317 314 311 312 313 314 313 310 301 299 301 303 304
313 313 312 310 311 312 313 315 317 320 321 321 321 319 318 318 318 318 318 319 318 315 312 310 309 308 308 307 308 310 312 313 312 308 308 309 310 298 297 298 300 301 299
312 311 309 310 310 310 312 315 318 318 318 318 318 318 317 317 316 316 317 312 307 306 304 302 300 300 299 299 300 301 303 305 309 310 307 304 300 296 296 299 297 296 295
310 309 309 309 309 309 309 310 313 316 317 318 317 316 315 315 315 314 307 303 300 299 299 299 299 299 299 299 298 298 298 299 300 302 303 299 295 295 295 297 295 296 294

GFSSE_850_thetae_171.txt.gz
Theta_e
331 332 334 332 331 326 322 314 322 327 327 328 327 327 325 327 327 327 327 325 322 316 321 326 328 329 330 329 328 326 318 312 312 315 313 311 310 308 313 323 321 319 319
330 331 333 332 331 326 323 315 318 327 327 324 323 318 319 320 319 317 316 315 314 312 315 322 321 325 324 324 323 319 311 311 311 312 312 311 308 307 311 321 324 322 320
331 330 330 330 330 326 323 318 313 316 318 318 325 326 323 322 318 315 313 316 320 315 312 313 320 320 320 321 320 316 311 310 311 311 311 310 311 310 307 309 313 314 312
331 330 328 326 327 325 323 321 315 317 316 325 329 328 322 319 319 318 325 327 328 318 314 313 314 318 317 323 320 317 314 311 310 310 311 311 311 312 310 309 307 309 311
332 330 328 327 326 325 323 323 319 316 319 320 320 318 318 323 321 321 322 321 320 316 312 313 314 316 317 322 319 316 313 311 311 310 310 311 311 311 311 311 309 307 308
332 330 329 328 326 326 324 322 322 318 315 320 324 322 328 328 324 321 321 320 318 314 311 312 320 326 322 322 319 315 313 311 311 310 310 310 311 311 311 311 311 310 309
329 330 330 329 329 327 326 324 323 322 319 315 320 323 323 325 328 323 321 319 317 315 313 310 312 315 317 315 315 313 311 310 310 310 310 310 311 311 312 314 312 312 311
332 332 332 330 328 328 327 327 325 324 323 320 316 318 323 323 324 323 320 320 319 317 315 314 315 312 312 311 310 310 310 310 310 310 310 310 310 311 312 320 321 314 314
331 329 328 328 328 327 328 327 327 326 325 324 322 319 319 320 319 317 318 320 321 320 318 317 316 316 315 315 314 314 314 314 314 314 312 315 313 311 312 314 323 323 320
332 331 328 327 326 326 326 326 327 327 326 326 325 325 322 320 319 318 317 318 319 322 325 321 321 321 319 317 316 316 317 317 317 315 316 316 315 313 313 314 314 319 322
328 328 328 327 326 325 325 326 326 326 326 326 326 326 326 325 324 322 321 319 319 319 321 322 322 323 322 321 319 319 319 320 321 320 318 317 317 316 316 317 317 318 322
325 326 325 327 326 325 326 326 326 326 325 326 325 327 326 326 326 326 326 325 321 320 321 323 324 323 322 321 321 320 320 320 320 321 321 322 322 322 321 321 321 321 322
322 322 322 324 326 326 325 326 326 326 327 328 328 328 326 325 326 326 325 325 325 324 325 326 326 326 325 325 325 325 324 324 324 324 324 323 323 323 323 323 323 324 324
319 320 321 322 323 324 327 326 327 328 328 329 331 331 331 329 326 328 327 326 326 325 325 323 323 323 324 323 324 324 324 323 324 323 323 323 323 323 323 323 324 324 324
320 321 321 321 320 320 322 322 324 328 330 330 331 332 331 331 329 326 326 326 325 325 325 325 324 324 324 324 323 324 323 324 323 323 323 323 322 322 321 321 322 323 323
321 320 320 319 317 318 319 319 320 325 330 331 333 331 330 330 328 327 327 326 326 325 325 325 325 325 324 324 324 324 324 324 323 324 323 322 322 321 320 320 320 321 321
320 319 318 318 318 318 319 319 318 319 324 329 332 331 329 329 327 327 327 326 326 325 325 325 324 324 325 325 325 326 325 323 323 323 322 321 321 320 320 320 320 320 320
319 318 318 318 318 318 318 319 318 318 320 324 328 331 329 329 327 328 326 325 325 324 325 324 324 325 325 324 324 324 323 323 322 322 322 321 320 320 320 320 321 320 319
317 318 317 318 318 319 319 319 319 319 319 320 323 326 328 329 328 327 327 326 327 324 324 323 323 323 322 322 322 322 321 321 321 321 321 320 319 317 319 320 320 320 319
317 317 317 317 318 318 318 318 318 317 317 317 318 318 319 320 323 325 327 327 326 324 324 322 321 321 321 321 321 321 320 320 320 320 319 318 317 318 318 318 318 318 318
316 316 316 316 316 317 317 316 315 313 312 313 314 316 317 318 320 323 326 321 321 321 322 321 320 320 320 320 320 319 319 317 317 318 317 316 317 317 316 316 316 316 315
316 316 316 316 315 315 314 312 312 312 312 314 316 318 322 323 323 321 321 321 320 320 319 319 319 318 319 319 318 318 317 315 315 315 315 315 314 312 312 310 304 306 308
315 315 314 314 313 312 311 312 313 314 314 318 319 321 321 318 318 319 319 318 318 318 319 319 317 316 314 315 313 314 315 315 313 312 313 313 312 312 307 299 299 301 301
313 313 313 312 310 311 312 314 315 318 320 320 319 320 318 318 317 317 317 317 317 315 309 308 307 305 303 303 303 304 306 309 313 310 310 311 308 303 297 299 301 298 295
312 312 310 309 310 311 312 313 315 317 317 317 318 317 317 317 316 316 315 314 308 305 302 299 299 299 299 299 299 299 300 302 304 307 308 308 305 299 296 299 298 296 294
311 309 308 309 310 310 310 310 312 314 316 316 316 316 314 314 313 313 310 305 300 299 298 299 299 298 298 298 298 298 298 298 299 301 304 303 297 294 294 298 297 295 293